User: anonymous   Login
Location: Borgo
(42.3939°N, 9.2791°E)
Time: 00:01:04
(UTC+00:00)
Language:

Cosmos 158 Rocket - Orbit

View from above orbital plane
View from above orbital plane
View from above satellite
View from above satellite

Ground track
Ground track

The orbit data is extracted from the following two-line orbital elements,

1 02802U 67045B   21110.33217286  .00000018  00000-0  13211-4 0  9992
2 02802  74.0119  74.3242 0065988 152.3952 208.0735 14.43802479831460
Epoch (UTC): 20 April 2021 07:58:19
Eccentricity: 0.0065988
inclination: 74.0119°
perigee height: 699 km
apogee height: 793 km
right ascension of ascending node: 74.3242°
argument of perigee: 152.3952°
revolutions per day: 14.43802479
mean anomaly at epoch: 208.0735°
orbit number at epoch: 83146

The dashed part of the orbit path shows where the satellite is in the earth's shadow,  

DLR